Regional Weather Roundup
Issued by NWS Charleston, SC

Current Version | Previous Version | Text Only | Print | Product List | Glossary Off
Versions: 1 2 3 4 5 6 7 8 9 10 11 12 13 14 15 16 17 18 19 20 21 22 23 24 25 26 27 28 29 30 31 32 33 34 35 36 37 38 39 40 41 42 43 44 45 46 47 48 49 50

000
ASUS42 KCHS 060012
RWRCHS

REGIONAL WEATHER ROUNDUP
NATIONAL WEATHER SERVICE CHARLESTON SC
800 PM EDT TUE MAY 05 2015

NOTE: "FAIR" INDICATES FEW OR NO CLOUDS BELOW 12,000 FEET WITH NO
SIGNIFICANT WEATHER AND/OR OBSTRUCTIONS TO VISIBILITY.

NOT ALL STATIONS ARE QUALITY CONTROLLED BY THE NATIONAL
WEATHER SERVICE. USE DATA WITH CAUTION...ESPECIALLY
DEWPOINT OBSERVATIONS.

SCZ027-030-031-034>040-042>050-060100-
...SOUTHEAST SOUTH CAROLINA...

CITY           SKY/WX    TMP DP  RH WIND       PRES   REMARKS
N CHARLESTON   CLOUDY    71  58  63 E13       30.25S
6HR MIN TEMP:  71; 6HR MAX TEMP:  80;

WATERFRONT PRK   N/A     70 N/A N/A E12         N/A
MOUNT PLEASANT FAIR      70  61  73 MISG      30.25S
PINOPOLIS      NOT AVBL
MONCKS CORNER  FAIR      73  57  56 E5        30.24S
SUMMERVILLE    FAIR      73  59  60 SE6       30.25R
BEAUFORT MCAS  CLOUDY    71  60  68 E9        30.24R
6HR MIN TEMP:  71; 6HR MAX TEMP:  79;

BEAUFORT ARPT  FAIR      70  61  73 CALM      30.24R
HILTON HEAD IS MOCLDY    72  61  68 NE8       30.25R
WALTERBORO     MOCLDY    72  55  56 E7        30.24R
ALLENDALE      FAIR      75  54  46 CALM      30.22R

...SOUTHERN MIDLANDS AND PEE DEE...

CITY           SKY/WX    TMP DP  RH WIND       PRES   REMARKS
GEORGETOWN     NOT AVBL
KINGSTREE      NOT AVBL
ORANGEBURG     PTCLDY    75  50  41 E3        30.23S
6HR MIN TEMP:  75; 6HR MAX TEMP:  82;

BARNWELL       FAIR      77  54  44 E6        30.23S
AIKEN          FAIR      73  48  40 SE6       30.26S
MANNING        FAIR      72  48  43 CALM      30.24S
COLUMBIA       PTCLDY    77  53  43 SE8       30.22S
6HR MIN TEMP:  76; 6HR MAX TEMP:  83;

SUMTER         CLEAR     75  49  39 S6        30.22S
6HR MIN TEMP:  75; 6HR MAX TEMP:  83;

FLORENCE       PTCLDY    74  54  49 SE13      30.24R
6HR MIN TEMP:  74; 6HR MAX TEMP:  84;

MYRTLE BEACH   CLEAR     72  59  64 E6        30.28F
N MYRTLE BEACH CLOUDY    70  60  70 E7        30.26F
6HR MIN TEMP:  70; 6HR MAX TEMP:  76;


$$

GAZ063-065-086>088-099>101-113>116-118-119-134>141-150-060100-
...SOUTHEAST GEORGIA...

CITY           SKY/WX    TMP DP  RH WIND       PRES   REMARKS
SAVANNAH ARPT  CLOUDY    72  56  57 E14       30.23R
6HR MIN TEMP:  72; 6HR MAX TEMP:  79;

HUNTER AAF     CLOUDY    72  60  65 E12       30.20S
6HR MIN TEMP:  71; 6HR MAX TEMP:  79;

FORT STEWART   MOCLDY    72  59  64 E8        30.20S
6HR MIN TEMP:  72; 6HR MAX TEMP:  80;

STATESBORO       N/A     76  53  44 CALM      30.21S
SYLVANIA       PTCLDY    74  57  54 SE3       30.22S
CLAXTON        FAIR      73  59  60 E5        30.21S

...CSRA...CENTRAL AND FAR SOUTHEAST GEORGIA...

CITY           SKY/WX    TMP DP  RH WIND       PRES   REMARKS
THOMSON        CLEAR     76  58  53 CALM      30.26S
AUGUSTA-BUSH   CLEAR     72  53  51 E5        30.21S
6HR MIN TEMP:  72; 6HR MAX TEMP:  83;

AUGUSTA-DANIEL CLEAR     78  49  35 E5        30.22S
SWAINSBORO     FAIR      79  37  22 E5        30.21S
VIDALIA        PTCLDY    73  55  53 E6        30.20F
EASTMAN        FAIR      75  58  53 E3        30.22R
HAZLEHURST     FAIR      76  53  44 E5        30.18S
ALMA           MOCLDY    74  57  55 E7        30.18S
6HR MIN TEMP:  74; 6HR MAX TEMP:  80;

WAYCROSS       MOCLDY    77  63  61 E10       30.18S
JESUP          FAIR      73  63  68 E7        30.21S
BAXLEY         FAIR      77  59  53 E6        30.19S
BRUNSWICK      CLOUDY    72  63  73 NE15      30.21S
SAINT SIMONS   CLOUDY    70  64  81 NE13G21   30.20S
6HR MIN TEMP:  70; 6HR MAX TEMP:  79;


$$

SCZ027-028-034-036>038-045-046-048>050-GAZ119-141-060100-
...LAKE AND SUPPLEMENTAL COASTAL OBSERVATIONS...

STATION/POSITION TIME  TEMP    WIND        PRES    WAVE   SWELL
                       AIR SEA DIR/SP/G            HT/PER HT/PER/DIR
                 (UTC) (F)     (DEG/KT/KT) (MB)    (FT/S) (FT/S/D)
UPR LAKE MARION  NOT AVBL
WINYAH BAY       2245   71      80/  9     1024.0
LAKE MURRAY      2300   78     100/  9/ 12 1022.4F
ACE BASIN NERRS  NOT AVBL
FORT PULASKI     2300           70/ 20/ 22 1024.0F
SAPELO ISLAND    2300   72      50/ 12     1023.0S

$$

ANZ835-935-AMZ111-154-330-350-352-354-370-450-454-472-060100-
...C-MAN AND BUOY OBSERVATIONS...

STATION/POSITION TIME  TEMP    WIND        PRES    WAVE   SWELL
                       AIR SEA DIR/SP/G            HT/PER HT/PER/DIR
                 (UTC) (F)     (DEG/KT/KT) (MB)    (FT/S) (FT/S/D)
BUOY 41004       2350   73 74   70/ 14/ 16 1023.3R   4/ 7   3/ 7
BUOY 41008       2350   69 70   60/ 17/ 21 1022.7S   6/ 6
FOLLY BEACH CMAN 2300   71      70/ 12/ 15 1024.1F
CAPERS NEARSHORE 2308   71      80/ 12/ 17 1024.1F
FRIPP NEARSHORE  2300   71      80/ 16/ 17 1022.8F


STATION/POSITION TIME  TEMP    WIND        PRES    WAVE   SWELL
                       AIR SEA DIR/SP/G            HT/PER HT/PER/DIR
                 (UTC) (F)     (DEG/KT/KT) (MB)    (FT/S) (FT/S/D)
5E ST. MARYS GA  2321      72                N/A     5/ 7
FRYING PAN BUOY  2350   73 72  100/  8/ 10 1025.5F   3/ 6   3/140/ 6
BUOY 41025       2350   71 77  170/ 16/ 17 1025.9R   3/ 9   2/ 90/ 9
CAPE LOOKOUT NC  2300   69     150/  8/  9 1025.4F
BUOY 41002       2350   70 70  100/ 19/ 23 1024.4F   6/ 7   2/ 70/ 9
BUOY 41010       2320   75 78   70/ 17/ 21 1018.9F
ST AUGUSTINE FL  0000   71 73   20/ 14/ 15 1021.5F


$$


USA.gov is the U.S. government's official web portal to all federal, state and local government web resources and services.